| time (UTC) | temp F | wind direction | speed MPH | gust MPH | rain 1hr in | rain 24hr in | rain mn in | humidity % | barometer mb |
| 20260906063110 | 51 | 297 | 3.0 | 11.0 | 0.00 | 0.04 | 0.00 | 87 | 1023.8 |
| 20260906062110 | 51 | 5 | 0.0 | 10.0 | 0.00 | 0.04 | 0.00 | 88 | 1023.8 |
| 20260906055109 | 50 | 316 | 3.0 | 8.0 | 0.00 | 0.04 | 0.00 | 89 | 1023.5 |
| 20260906054109 | 50 | 327 | 1.0 | 11.0 | 0.00 | 0.04 | 0.00 | 89 | 1023.5 |
| 20260906053109 | 50 | 305 | 1.0 | 8.0 | 0.00 | 0.04 | 0.00 | 89 | 1023.5 |
| 20260906045109 | 49 | 355 | 0.0 | 6.0 | 0.00 | 0.04 | 0.00 | 88 | 1022.8 |
| 20260906041108 | 50 | 318 | 1.0 | 5.0 | 0.00 | 0.04 | 0.00 | 88 | 1022.6 |
| 20260906040108 | 51 | 349 | 2.0 | 8.0 | 0.00 | 0.04 | 0.00 | 88 | 1022.7 |
| 20260906035108 | 51 | 284 | 2.0 | 10.0 | 0.00 | 0.04 | 0.00 | 88 | 1022.6 |
| 20260906032108 | 51 | 47 | 2.0 | 7.0 | 0.00 | 0.04 | 0.00 | 88 | 1022.4 |
| 20260906031108 | 51 | 301 | 0.0 | 10.0 | 0.00 | 0.04 | 0.00 | 88 | 1022.3 |
| 20260906030108 | 51 | 301 | 1.0 | 10.0 | 0.00 | 0.04 | 0.00 | 88 | 1022.3 |
| 20260906024108 | 51 | 324 | 1.0 | 7.0 | 0.00 | 0.04 | 0.00 | 88 | 1022.2 |
| 20260906023108 | 51 | 310 | 2.0 | 8.0 | 0.00 | 0.04 | 0.00 | 88 | 1022.3 |
| 20260906022108 | 51 | 355 | 3.0 | 11.0 | 0.00 | 0.04 | 0.00 | 88 | 1022.1 |
| 20260906020107 | 51 | 323 | 0.0 | 7.0 | 0.00 | 0.04 | 0.00 | 88 | 1022.3 |
| 20260906015108 | 51 | 331 | 2.0 | 7.0 | 0.00 | 0.06 | 0.00 | 88 | 1022.2 |
| 20260906012112 | 52 | 284 | 0.0 | 0.0 | 0.00 | 0.06 | 0.00 | 87 | 1022.0 |
| 20260906011112 | 52 | 250 | 1.0 | 5.0 | 0.00 | 0.06 | 0.00 | 87 | 1022.1 |
| 20260906010112 | 52 | 270 | 2.0 | 14.0 | 0.00 | 0.06 | 0.00 | 87 | 1021.9 |
| 20260906005112 | 52 | 304 | 2.0 | 8.0 | 0.00 | 0.08 | 0.00 | 88 | 1022.0 |
| 20260906003112 | 52 | 278 | 3.0 | 13.0 | 0.00 | 0.08 | 0.00 | 88 | 1021.9 |
| 20260906000112 | 52 | 332 | 0.0 | 5.0 | 0.00 | 0.08 | 0.00 | 88 | 1022.0 |
| 20260905235112 | 52 | 329 | 0.0 | 1.0 | 0.00 | 0.10 | 0.00 | 87 | 1021.7 |
| 20260905231111 | 52 | 318 | 1.0 | 8.0 | 0.00 | 0.10 | 0.00 | 87 | 1021.4 |
| 20260905230111 | 52 | 30 | 3.0 | 8.0 | 0.00 | 0.10 | 0.00 | 87 | 1021.4 |
| 20260905224111 | 52 | 19 | 1.0 | 6.0 | 0.00 | 0.13 | 0.00 | 88 | 1021.3 |
| 20260905222111 | 52 | 360 | 1.0 | 8.0 | 0.01 | 0.13 | 0.00 | 89 | 1021.1 |
| 20260905212111 | 53 | 342 | 0.0 | 0.0 | 0.00 | 0.21 | 0.21 | 88 | 1020.6 |
| 20260905203110 | 53 | 334 | 3.0 | 12.0 | 0.00 | 0.21 | 0.21 | 88 | 1020.0 |
| 20260905202110 | 53 | 298 | 2.0 | 10.0 | 0.02 | 0.21 | 0.21 | 88 | 1020.0 |
| 20260905195110 | 53 | 257 | 4.0 | 10.0 | 0.02 | 0.21 | 0.21 | 88 | 1020.1 |
| 20260905194110 | 54 | 22 | 3.0 | 8.0 | 0.02 | 0.21 | 0.21 | 87 | 1020.2 |
| 20260905193110 | 54 | 293 | 3.0 | 13.0 | 0.03 | 0.21 | 0.21 | 86 | 1019.9 |
| 20260905192110 | 54 | 321 | 0.0 | 6.0 | 0.02 | 0.20 | 0.20 | 85 | 1019.7 |
| 20260905191110 | 55 | 319 | 0.0 | 1.0 | 0.02 | 0.20 | 0.20 | 84 | 1019.6 |
| 20260905190110 | 55 | 320 | 1.0 | 7.0 | 0.02 | 0.20 | 0.20 | 82 | 1019.2 |
| 20260905185110 | 56 | 275 | 1.0 | 7.0 | 0.02 | 0.20 | 0.20 | 80 | 1019.4 |
| 20260905184110 | 57 | 333 | 2.0 | 12.0 | 0.01 | 0.19 | 0.19 | 77 | 1019.4 |
| 20260905183109 | 57 | 293 | 1.0 | 8.0 | 0.00 | 0.18 | 0.18 | 73 | 1019.0 |
| 20260905175109 | 57 | 348 | 2.0 | 11.0 | 0.00 | 0.18 | 0.18 | 70 | 1018.1 |
| 20260905174109 | 58 | 334 | 0.0 | 6.0 | 0.00 | 0.18 | 0.18 | 69 | 1018.2 |
| 20260905171110 | 59 | 328 | 0.0 | 1.0 | 0.00 | 0.18 | 0.18 | 67 | 1017.8 |
| 20260905164109 | 60 | 22 | 2.0 | 11.0 | 0.00 | 0.18 | 0.18 | 64 | 1017.3 |
| 20260905163109 | 60 | 328 | 2.0 | 11.0 | 0.00 | 0.18 | 0.18 | 62 | 1017.3 |
| 20260905160109 | 60 | 59 | 1.0 | 8.0 | 0.00 | 0.18 | 0.18 | 63 | 1017.1 |
| 20260905152108 | 61 | 94 | 1.0 | 10.0 | 0.00 | 0.18 | 0.18 | 63 | 1016.8 |
| 20260905150113 | 61 | 306 | 2.0 | 10.0 | 0.00 | 0.18 | 0.18 | 62 | 1016.9 |
| 20260905141113 | 63 | 317 | 1.0 | 7.0 | 0.00 | 0.18 | 0.18 | 62 | 1016.9 |
| 20260905140113 | 64 | 90 | 2.0 | 8.0 | 0.00 | 0.18 | 0.18 | 59 | 1016.9 |
| 20260905132113 | 64 | 61 | 3.0 | 14.0 | 0.00 | 0.19 | 0.18 | 59 | 1016.9 |
| 20260905131112 | 64 | 277 | 3.0 | 14.0 | 0.00 | 0.19 | 0.18 | 62 | 1016.9 |
| 20260905130112 | 64 | 344 | 2.0 | 12.0 | 0.00 | 0.19 | 0.18 | 62 | 1017.0 |
| 20260905124112 | 64 | 216 | 2.0 | 16.0 | 0.00 | 0.19 | 0.18 | 61 | 1017.1 |
| 20260905115112 | 63 | 342 | 2.0 | 7.0 | 0.00 | 0.19 | 0.18 | 65 | 1017.3 |
| 20260905112112 | 63 | 355 | 1.0 | 7.0 | 0.00 | 0.19 | 0.18 | 67 | 1017.2 |
| 20260905111112 | 63 | 5 | 2.0 | 7.0 | 0.00 | 0.19 | 0.18 | 65 | 1017.2 |
| 20260905110112 | 64 | 184 | 3.0 | 11.0 | 0.00 | 0.19 | 0.18 | 63 | 1017.0 |
| 20260905102111 | 63 | 28 | 3.0 | 11.0 | 0.00 | 0.19 | 0.18 | 68 | 1017.0 |
| 20260905095111 | 62 | 304 | 1.0 | 10.0 | 0.00 | 0.19 | 0.18 | 72 | 1017.1 |
| 20260905094111 | 61 | 296 | 2.0 | 7.0 | 0.00 | 0.19 | 0.18 | 74 | 1017.0 |
| 20260905092111 | 60 | 306 | 3.0 | 13.0 | 0.00 | 0.19 | 0.18 | 76 | 1017.0 |
| 20260905091111 | 60 | 327 | 3.0 | 13.0 | 0.00 | 0.19 | 0.18 | 75 | 1016.9 |
| 20260905090111 | 60 | 27 | 3.0 | 10.0 | 0.00 | 0.19 | 0.18 | 80 | 1016.9 |
| 20260905084111 | 60 | 117 | 1.0 | 8.0 | 0.00 | 0.19 | 0.18 | 77 | 1016.8 |
| 20260905081110 | 59 | 131 | 2.0 | 8.0 | 0.00 | 0.19 | 0.18 | 83 | 1016.5 |